#datint,netname,site,siteID,timestamp,IntT,BattV,AirT2,AirT,AirT_Avg,AirT_Max,AirT_Min,RH_Avg,RH_Max,RH_Min,EA_Avg,Td_Avg,Td_Max,Td_Min,WindS_Smp,WindS_Avg,WindD_Avg,WindD_SD,WindS_Max,ETo,ETr,SoilT4,SoilT8,SoilVWC8,SolarW_Avg,wetstate_Avg,wetT_Avg,Precip_accum,Precip_WPG,Precip_TB
15min,AgWx,beryljct,423,16FEB2019:00:00:00,36.5,12.95,34.5,34.3,34.7,34.9,34.3,83,85,82,0.569,30.1,30.5,29.9,10.43,13.5,200,8.8,21.9,0.00005,0.00007,.,33.5,24,0,0,35.6,10.73,0.00,0.00
15min,AgWx,beryljct,423,16FEB2019:00:15:00,36.1,12.95,32.2,32.5,33.9,34.3,32.5,86,87,84,0.533,30.1,30.6,28.6,18.41,13.4,229,37,26.4,0.00003,0.00004,.,33.5,25,0,0,35.3,10.74,0.00,0.00
15min,AgWx,beryljct,423,16FEB2019:00:30:00,34.9,12.77,28.4,28.1,29.5,32.3,28.1,89,91,86,0.472,26.5,28.5,25.7,16.29,18.4,305,7.9,26.2,0.00003,0.00004,.,33.5,25,0,0,35.2,10.76,0.02,0.00
15min,AgWx,beryljct,423,16FEB2019:00:45:00,33.6,12.78,28.0,27.6,27.8,28.2,27.6,91,92,91,0.469,25.6,25.8,25.5,11.57,14.7,311,6.6,19.0,-0.00000,0.00000,.,33.5,25,0,0,35.8,10.76,0.00,0.00
15min,AgWx,beryljct,423,16FEB2019:01:00:00,32.6,12.89,27.9,27.5,27.6,27.7,27.5,92,92,92,0.468,25.6,25.7,25.5,9.05,13.2,313,6.9,16.9,-0.00001,-0.00001,.,33.5,25,0,0,35.6,10.77,0.01,0.00
15min,AgWx,beryljct,423,16FEB2019:01:15:00,32.0,12.91,27.8,27.2,27.4,27.5,27.2,93,93,92,0.466,25.5,25.6,25.4,8.53,9.3,312,6.6,12.2,-0.00003,-0.00003,.,33.5,25,0,0,35.7,10.76,0.00,0.00
15min,AgWx,beryljct,423,16FEB2019:01:30:00,31.5,12.9,27.9,27.2,27.2,27.3,27.2,93,93,93,0.465,25.4,25.4,25.3,5.722,7.2,325,6.5,8.7,-0.00005,-0.00005,.,33.5,25,0,0,35.8,10.77,0.00,0.00
15min,AgWx,beryljct,423,16FEB2019:01:45:00,31.1,12.9,27.8,27.2,27.2,27.3,27.1,93,93,93,0.464,25.3,25.4,25.2,1.184,3.8,325,11,7.5,-0.00009,-0.00010,.,33.5,24,0,0,35.7,10.77,0.00,0.00
15min,AgWx,beryljct,423,16FEB2019:02:00:00,30.8,12.89,27.5,27.0,27.1,27.2,27.0,92,93,92,0.458,25.2,25.3,25.0,4.319,1.4,167,66,4.5,-0.00015,-0.00020,.,33.5,25,0,0,35.4,10.77,0.00,0.00
15min,AgWx,beryljct,423,16FEB2019:02:15:00,30.5,12.89,27.2,26.7,26.7,27.1,26.5,92,93,92,0.454,24.8,25.1,24.6,3.31,4.1,179,24,4.9,-0.00008,-0.00009,.,33.5,25,0,0,35.5,10.77,0.00,0.00
15min,AgWx,beryljct,423,16FEB2019:02:30:00,30.1,12.9,26.8,26.4,26.6,26.8,26.4,93,93,92,0.449,24.7,25.0,24.5,4.713,3.1,191,11,4.8,-0.00010,-0.00012,.,33.5,25,0,0,35.5,10.77,0.00,0.00
15min,AgWx,beryljct,423,16FEB2019:02:45:00,29.8,12.88,26.8,26.5,26.3,26.5,26.2,93,93,92,0.452,24.5,24.8,24.3,3.288,4.0,193,22,5.2,-0.00008,-0.00009,.,33.5,25,0,0,35.6,10.77,0.00,0.00
15min,AgWx,beryljct,423,16FEB2019:03:00:00,29.3,12.86,26.2,25.4,25.4,26.4,25.1,93,93,92,0.434,23.6,24.6,23.1,1.403,3.1,147,7.6,4.4,-0.00010,-0.00011,.,33.5,25,0,0,35.6,10.77,0.00,0.00
15min,AgWx,beryljct,423,16FEB2019:03:15:00,28.8,12.86,25.2,24.8,25.3,25.6,24.8,94,94,93,0.425,23.6,24.0,23.2,4.911,3.3,165,9.8,4.9,-0.00010,-0.00011,.,33.4,24,0,0,35.4,10.77,0.00,0.00
15min,AgWx,beryljct,423,16FEB2019:03:30:00,28.3,12.73,24.5,24.1,24.5,24.9,24.1,94,94,93,0.414,22.9,23.3,22.5,3.793,3.8,160,19,4.7,-0.00009,-0.00010,.,33.5,24,0,0,35.5,10.77,0.00,0.00
15min,AgWx,beryljct,423,16FEB2019:03:45:00,27.8,12.84,25.7,24.9,24.2,24.9,23.8,94,95,94,0.433,22.7,23.6,22.2,3.814,4.3,191,11,5.1,-0.00008,-0.00009,.,33.5,25,0,0,35.4,10.77,0.00,0.00
15min,AgWx,beryljct,423,16FEB2019:04:00:00,27.5,12.85,24.1,23.9,24.7,25.1,23.9,94,95,94,0.409,23.2,23.7,22.3,0.548,3.1,192,4.3,4.1,-0.00010,-0.00012,.,33.5,24,0,0,35.7,10.77,0.01,0.00
15min,AgWx,beryljct,423,16FEB2019:04:15:00,27.1,12.84,25.9,24.6,23.7,24.6,23.1,94,94,93,0.425,22.2,23.2,21.5,1.688,1.5,213,6.9,2.3,-0.00013,-0.00018,.,33.5,25,0,0,35.7,10.77,0.00,0.00
15min,AgWx,beryljct,423,16FEB2019:04:30:00,26.8,12.85,26.3,25.2,24.8,25.2,24.0,93,94,91,0.423,23.0,23.6,22.2,0.614,1.7,244,25,3.5,-0.00013,-0.00017,.,33.5,24,0,0,35.5,10.77,0.00,0.00
15min,AgWx,beryljct,423,16FEB2019:04:45:00,26.7,12.82,23.5,23.9,25.0,25.7,23.9,89,91,87,0.385,22.3,23.3,20.8,1.754,2.1,285,26,3.8,-0.00011,-0.00014,.,33.5,24,0,0,35.4,10.77,0.00,0.00
15min,AgWx,beryljct,423,16FEB2019:05:00:00,26.4,12.82,23.2,22.4,22.8,23.8,22.0,89,91,88,0.372,20.1,20.9,19.5,0.417,1.3,326,3.0,2.8,-0.00013,-0.00017,.,33.5,25,0,0,35.6,10.77,0.00,0.00
15min,AgWx,beryljct,423,16FEB2019:05:15:00,25.9,12.83,22.6,22.2,22.4,22.7,22.1,91,91,90,0.368,20.1,20.5,19.6,2.587,1.2,330,3.7,2.6,-0.00014,-0.00019,.,33.5,24,0,0,35.5,10.77,0.00,0.00
15min,AgWx,beryljct,423,16FEB2019:05:30:00,25.4,12.8,22.1,21.7,21.2,22.3,20.9,90,91,89,0.362,18.8,19.9,18.4,3.836,3.1,324,6.2,4.8,-0.00008,-0.00009,.,33.5,24,0,0,35.5,10.77,0.00,0.00
15min,AgWx,beryljct,423,16FEB2019:05:45:00,24.6,12.78,20.2,19.9,20.7,21.8,19.9,90,91,90,0.333,18.3,19.6,17.4,5.415,4.9,320,7.1,6.5,-0.00005,-0.00006,.,33.5,25,0,0,35.5,10.77,0.00,0.00
15min,AgWx,beryljct,423,16FEB2019:06:00:00,23.8,12.79,21.7,21.4,20.5,21.5,19.6,91,92,90,0.361,18.4,19.5,17.2,5.042,5.9,291,13,7.1,-0.00004,-0.00005,.,33.5,25,0,0,35.6,10.77,0.00,0.00
15min,AgWx,beryljct,423,16FEB2019:06:15:00,23.4,12.76,20.7,20.3,21.1,21.5,20.3,91,91,90,0.338,18.9,19.4,17.8,5.678,5.3,264,5.7,6.7,-0.00005,-0.00005,.,33.5,24,0,0,35.6,10.77,0.00,0.00
15min,AgWx,beryljct,423,16FEB2019:06:30:00,23.2,12.77,21.5,20.8,20.8,21.2,20.3,91,91,90,0.348,18.5,19.0,17.8,6.072,6.6,266,3.9,7.9,-0.00004,-0.00004,.,33.5,24,0,0,35.6,10.77,0.00,0.00
15min,AgWx,beryljct,423,16FEB2019:06:45:00,23.0,12.61,21.8,21.0,20.8,21.0,20.7,91,92,91,0.355,18.6,19.0,18.4,8.4,7.5,263,3.3,9.5,0.00007,0.00012,.,33.5,24,0,0,35.5,10.77,0.00,0.00
15min,AgWx,beryljct,423,16FEB2019:07:00:00,23.1,12.61,22.9,21.7,21.4,21.8,21.0,92,92,92,0.367,19.4,19.9,18.9,6.796,6.7,275,17,9.8,0.00006,0.00010,.,33.5,24,0,0,35.8,10.77,0.00,0.00
15min,AgWx,beryljct,423,16FEB2019:07:15:00,23.0,12.61,20.9,20.3,21.3,22.3,20.3,91,93,91,0.340,19.2,20.5,17.9,3.968,5.2,305,6.0,7.1,0.00005,0.00009,.,33.5,24,1,0,35.8,10.77,0.00,0.00
15min,AgWx,beryljct,423,16FEB2019:07:30:00,22.3,12.59,15.2,16.0,19.5,20.4,16.0,90,91,87,0.274,17.2,18.2,13.0,7.234,3.6,302,65,8.9,0.00005,0.00008,.,33.5,25,5,0,35.2,10.77,0.00,0.00
15min,AgWx,beryljct,423,16FEB2019:07:45:00,21.2,12.73,16.7,15.5,14.9,15.8,14.1,90,92,88,0.280,12.6,13.8,11.7,4.582,5.4,123,16,8.5,0.00007,0.00011,.,33.5,25,11,0,36.0,10.78,0.01,0.00
15min,AgWx,beryljct,423,16FEB2019:08:00:00,20.7,12.77,18.8,17.9,16.4,17.9,15.6,92,92,91,0.313,14.4,16.0,13.6,5.7,4.8,187,17,7.7,0.00011,0.00015,.,33.5,25,32,0,35.8,10.77,0.00,0.00
15min,AgWx,beryljct,423,16FEB2019:08:15:00,21.0,12.81,20.3,19.8,18.9,20.0,17.8,92,92,91,0.337,17.0,18.0,16.0,3.968,5.3,202,5.8,6.3,0.00016,0.00020,.,33.5,25,48,0,35.7,10.77,0.00,0.00
15min,AgWx,beryljct,423,16FEB2019:08:30:00,21.6,12.96,23.2,22.4,21.5,22.5,19.8,92,92,91,0.374,19.4,20.3,17.6,4.034,4.5,187,9.8,5.7,0.00028,0.00033,.,33.5,25,91,0,35.7,10.77,0.00,0.00
15min,AgWx,beryljct,423,16FEB2019:08:45:00,23.0,14.92,21.7,21.7,22.2,22.7,21.7,90,91,89,0.353,19.7,20.5,18.8,3.157,4.1,157,12,5.2,0.00051,0.00057,.,33.5,26,198,0,37.9,10.77,0.00,0.00
15min,AgWx,beryljct,423,16FEB2019:09:00:00,24.6,14.87,24.6,23.9,22.2,23.9,21.1,89,90,88,0.392,19.5,21.3,18.3,5.831,4.3,167,16,6.2,0.00067,0.00075,.,33.5,25,270,0,41.3,10.77,0.00,0.00
15min,AgWx,beryljct,423,16FEB2019:09:15:00,26.5,14.79,25.2,25.1,24.8,25.1,23.9,87,89,86,0.396,21.6,21.7,21.2,2.28,4.7,191,9.3,5.9,0.00084,0.00094,.,33.5,26,317,0,44.0,10.76,0.00,0.00
15min,AgWx,beryljct,423,16FEB2019:09:30:00,28.5,14.77,24.5,24.1,24.4,25.0,23.9,87,89,86,0.390,21.2,21.6,20.9,5.393,4.6,118,24,6.2,0.00096,0.00107,.,33.5,25,365,0,46.7,10.76,0.00,0.01
15min,AgWx,beryljct,423,16FEB2019:09:45:00,29.6,14.79,25.4,24.8,24.4,24.8,24.1,89,89,88,0.401,21.5,21.8,21.2,5.217,5.6,127,7.9,6.6,0.00104,0.00115,.,33.5,26,412,0,45.2,10.77,0.00,0.00
15min,AgWx,beryljct,423,16FEB2019:10:00:00,30.8,14.78,28.2,28.0,26.3,28.0,24.8,86,88,82,0.426,22.6,23.3,21.8,7.629,5.8,184,20,7.7,0.00122,0.00136,.,33.5,26,457,0,48.9,10.77,0.00,0.00
15min,AgWx,beryljct,423,16FEB2019:10:15:00,31.9,14.85,29.9,29.4,28.7,29.4,28.0,79,82,72,0.396,22.8,23.6,21.5,7.234,7.5,204,7.3,10.1,0.00140,0.00162,.,33.5,25,497,0,48.6,10.77,0.00,0.01
15min,AgWx,beryljct,423,16FEB2019:10:30:00,33.1,14.71,30.8,30.2,29.8,30.2,29.4,69,73,64,0.368,20.9,22.1,19.4,7.563,6.6,213,18,9.2,0.00166,0.00193,.,33.5,26,535,0,50.2,10.77,0.00,0.00
15min,AgWx,beryljct,423,16FEB2019:10:45:00,34.2,14.72,30.8,30.7,30.6,30.8,30.3,59,64,55,0.318,17.9,19.7,16.4,6.642,7.3,228,14,10.7,0.00185,0.00223,.,33.5,25,570,0,49.7,10.76,0.00,0.00
15min,AgWx,beryljct,423,16FEB2019:11:00:00,35.1,14.33,31.4,31.2,31.1,31.3,30.7,55,58,50,0.325,16.6,18.2,14.7,11.29,8.0,251,9.0,11.8,0.00199,0.00242,.,33.5,24,601,0,48.4,10.76,0.00,0.00
15min,AgWx,beryljct,423,16FEB2019:11:15:00,35.8,14.32,32.2,31.8,31.5,31.9,31.2,51,55,45,0.293,15.4,17.3,12.6,5.239,7.3,251,9.6,11.0,0.00213,0.00258,.,33.5,25,628,0,49.5,10.76,0.00,0.00
15min,AgWx,beryljct,423,16FEB2019:11:30:00,36.5,14.31,32.6,32.2,31.9,32.2,31.7,49,52,45,0.305,14.7,16.4,12.9,7.41,6.6,247,11,10.7,0.00226,0.00271,.,33.5,24,651,0,51.5,10.76,0.00,0.00
15min,AgWx,beryljct,423,16FEB2019:11:45:00,37.4,14.29,32.6,32.3,32.5,33.0,32.2,47,50,44,0.274,14.3,16.3,13.0,2.389,5.5,242,31,10.2,0.00238,0.00282,.,33.5,24,672,0,54.0,10.76,0.00,0.00
15min,AgWx,beryljct,423,16FEB2019:12:00:00,38.6,14.25,33.7,33.4,33.3,34.7,32.3,44,46,41,0.275,13.7,15.1,12.8,5.941,2.4,235,32,6.7,0.00257,0.00289,.,33.5,24,689,0,64.1,10.76,0.00,0.00
15min,AgWx,beryljct,423,16FEB2019:12:15:00,39.6,14.28,34.1,34.0,33.4,34.0,32.9,44,48,41,0.298,13.6,16.1,11.5,4.604,5.6,252,23,11.6,0.00254,0.00302,.,33.5,24,701,0,55.4,10.76,0.00,0.00
15min,AgWx,beryljct,423,16FEB2019:12:30:00,39.9,14.23,33.3,33.6,33.8,34.3,33.3,44,49,40,0.273,14.4,17.2,11.7,3.814,5.9,279,24,11.3,0.00259,0.00308,.,33.5,24,712,0,54.3,10.75,0.00,0.00
15min,AgWx,beryljct,423,16FEB2019:12:45:00,40.2,14.23,35.2,34.3,34.2,34.8,33.5,44,49,41,0.310,14.7,17.8,12.6,7.322,6.2,280,38,12.0,0.00266,0.00317,.,33.5,24,728,0,54.4,10.75,0.00,0.00
15min,AgWx,beryljct,423,16FEB2019:13:00:00,40.7,14.2,34.5,34.8,34.6,35.6,33.6,44,48,40,0.294,14.9,17.8,12.4,10.39,4.7,258,30,10.4,0.00272,0.00318,.,33.5,24,725,0,56.1,10.75,0.00,0.00
15min,AgWx,beryljct,423,16FEB2019:13:15:00,40.7,14.21,34.7,34.6,34.8,35.2,34.5,44,49,41,0.305,15.3,18.1,13.3,10.79,8.3,232,16,12.5,0.00224,0.00281,.,33.5,24,589,0,49.2,10.75,0.00,0.00
15min,AgWx,beryljct,423,16FEB2019:13:30:00,40.2,14.22,35.7,34.8,34.7,35.2,34.2,44,48,41,0.294,14.9,17.2,13.0,7.475,8.5,251,14,11.9,0.00218,0.00276,.,33.5,24,574,0,47.1,10.75,0.00,0.00
15min,AgWx,beryljct,423,16FEB2019:13:45:00,40.2,14.18,35.7,36.1,34.9,36.1,34.2,41,47,34,0.339,13.3,17.9,8.8,5.48,5.8,268,33,11.8,0.00249,0.00301,.,33.5,25,658,0,51.2,10.74,0.00,0.00
15min,AgWx,beryljct,423,16FEB2019:14:00:00,40.6,14.29,36.3,36.6,35.8,36.6,35.2,43,50,37,0.368,15.6,19.8,11.5,8.37,7.5,260,14,12.5,0.00237,0.00293,.,33.5,24,617,0,48.4,10.74,0.00,0.00
15min,AgWx,beryljct,423,16FEB2019:14:15:00,40.8,14.15,38.1,36.1,36.2,36.6,35.9,43,48,39,0.298,15.8,18.7,13.3,7.037,10.0,256,12,14.8,0.00245,0.00312,.,33.5,24,643,0,45.8,10.74,0.00,0.00
15min,AgWx,beryljct,423,16FEB2019:14:30:00,40.9,14.15,36.2,35.9,36.1,36.8,35.6,44,50,40,0.306,16.1,19.9,13.8,15.7,11.2,256,13,17.7,0.00210,0.00278,.,33.5,25,528,0,44.6,10.74,0.00,0.00
15min,AgWx,beryljct,423,16FEB2019:14:45:00,40.5,14.16,37.1,36.6,35.9,36.7,35.6,44,50,41,0.365,16.3,19.7,14.5,17.12,13.5,268,9.3,17.7,0.00201,0.00273,.,33.5,25,503,0,42.9,10.74,0.00,0.00
15min,AgWx,beryljct,423,16FEB2019:15:00:00,40.4,14.22,36.4,36.0,36.0,36.6,35.7,44,49,41,0.322,16.1,19.4,14.5,14.75,14.3,262,11,19.3,0.00208,0.00284,.,33.5,24,523,0,43.7,10.74,0.00,0.00
15min,AgWx,beryljct,423,16FEB2019:15:15:00,40.3,14.22,36.2,36.3,36.1,36.6,35.7,44,48,40,0.329,16.4,18.4,14.1,14.47,14.9,259,11,20.7,0.00205,0.00282,.,33.5,24,513,0,43.7,10.74,0.00,0.00
15min,AgWx,beryljct,423,16FEB2019:15:30:00,40.3,14.23,36.2,35.9,36.1,36.6,35.7,45,49,43,0.309,16.8,19.1,15.5,8.59,14.2,259,12,18.8,0.00209,0.00283,.,33.5,25,532,0,43.4,10.74,0.00,0.00
15min,AgWx,beryljct,423,16FEB2019:15:45:00,40.6,14.14,36.1,35.9,36.2,36.7,35.7,44,48,41,0.302,16.5,18.6,14.6,13.55,12.0,278,14,15.4,0.00202,0.00271,.,33.5,24,506,0,43.4,10.73,0.00,0.00
15min,AgWx,beryljct,423,16FEB2019:16:00:00,40.5,14.17,36.5,35.9,35.7,36.1,35.3,44,47,42,0.319,15.8,17.8,14.5,11.25,12.0,286,13,17.1,0.00150,0.00216,.,33.5,24,333,0,40.5,10.74,0.00,0.00
15min,AgWx,beryljct,423,16FEB2019:16:15:00,40.2,14.15,36.2,35.5,35.7,36.2,35.4,45,49,42,0.319,16.5,18.3,14.8,10.43,13.2,273,14,19.1,0.00163,0.00232,.,33.5,25,378,0,39.7,10.74,0.00,0.00
15min,AgWx,beryljct,423,16FEB2019:16:30:00,40.0,14.14,35.4,35.2,35.4,35.9,35.0,45,48,42,0.316,16.1,18.1,14.3,12.63,12.7,270,9.3,16.9,0.00150,0.00216,.,33.5,24,339,0,39.1,10.74,0.00,0.00
15min,AgWx,beryljct,423,16FEB2019:16:45:00,39.7,14.15,34.8,34.5,34.8,35.2,34.4,44,47,43,0.305,15.3,16.8,14.1,12.93,12.7,264,12,16.2,0.00134,0.00199,.,33.5,24,288,0,37.7,10.74,0.00,0.00
15min,AgWx,beryljct,423,16FEB2019:17:00:00,39.1,14.22,34.4,33.9,34.3,35.0,33.8,49,53,45,0.337,17.4,19.3,15.6,10.48,13.1,253,8.9,18.2,0.00113,0.00172,.,33.5,24,238,0,36.3,10.74,0.00,0.00
15min,AgWx,beryljct,423,16FEB2019:17:15:00,38.4,14.15,34.1,33.7,33.8,34.0,33.7,49,53,46,0.320,16.8,18.3,15.1,12.96,12.4,267,8.4,16.9,0.00097,0.00152,.,33.5,25,191,0,35.5,10.73,0.00,0.00
15min,AgWx,beryljct,423,16FEB2019:17:30:00,37.7,14.25,33.8,33.3,33.6,33.7,33.3,49,51,47,0.312,16.4,17.3,15.6,12.23,11.1,269,9.1,15.0,0.00035,0.00040,.,33.5,24,144,0,35.5,10.73,0.00,0.00
15min,AgWx,beryljct,423,16FEB2019:17:45:00,36.8,13.13,32.7,32.6,33.0,33.4,32.6,51,54,48,0.328,16.8,17.9,15.7,8.42,9.3,274,6.8,15.2,0.00025,0.00030,.,33.5,24,63,0,35.5,10.74,0.01,0.00
15min,AgWx,beryljct,423,16FEB2019:18:00:00,35.4,13.15,31.7,31.2,31.8,32.6,31.2,55,57,52,0.340,17.4,17.9,16.7,7.19,7.0,278,5.3,9.9,0.00015,0.00019,.,33.5,24,15,0,35.4,10.74,0.00,0.00
15min,AgWx,beryljct,423,16FEB2019:18:15:00,33.9,13.09,31.5,31.0,30.9,31.2,30.8,59,60,57,0.348,18.3,18.6,17.8,6.248,6.5,272,4.6,7.5,0.00010,0.00013,.,33.5,25,7,0,35.4,10.74,0.00,0.00
15min,AgWx,beryljct,423,16FEB2019:18:30:00,32.7,13.06,29.8,29.5,30.1,31.1,29.5,64,67,59,0.370,19.3,19.9,18.2,0.943,3.8,247,7.1,6.7,0.00001,0.00002,.,33.5,25,2,0,35.6,10.74,0.00,0.00
15min,AgWx,beryljct,423,16FEB2019:18:45:00,31.5,13.04,30.2,29.8,29.6,30.3,28.6,66,72,60,0.358,19.5,20.7,18.0,3.727,3.3,85,50,6.4,-0.00003,-0.00002,.,33.5,24,0,0,35.6,10.74,0.00,0.00
15min,AgWx,beryljct,423,16FEB2019:19:00:00,30.6,13.01,32.2,31.6,30.6,31.6,29.4,58,66,52,0.314,17.5,19.6,16.0,1.6,3.2,60,5.1,4.9,-0.00000,0.00001,.,33.5,24,0,0,35.7,10.74,0.00,0.00
15min,AgWx,beryljct,423,16FEB2019:19:15:00,30.0,13.01,30.2,28.8,30.0,31.6,28.5,60,68,52,0.361,17.8,19.4,16.0,5.261,2.4,181,82,5.4,-0.00005,-0.00005,.,33.5,25,0,0,35.4,10.74,0.00,0.00
15min,AgWx,beryljct,423,16FEB2019:19:30:00,29.7,13,30.2,29.4,28.8,29.4,28.3,69,73,65,0.356,19.9,20.8,18.9,7.519,6.4,227,6.7,8.0,0.00004,0.00006,.,33.5,25,0,0,35.7,10.74,0.00,0.00
15min,AgWx,beryljct,423,16FEB2019:19:45:00,29.8,12.84,29.7,29.5,29.4,29.7,29.2,65,66,63,0.356,19.0,19.3,18.7,5.919,7.2,221,7.4,9.0,0.00008,0.00010,.,33.5,25,0,0,35.4,10.75,0.00,0.00
15min,AgWx,beryljct,423,16FEB2019:20:00:00,29.8,12.96,29.6,29.2,29.4,29.5,29.2,65,66,64,0.355,19.0,19.3,18.8,3.398,5.5,225,5.6,7.9,0.00004,0.00007,.,33.5,24,0,0,35.8,10.75,0.00,0.00
15min,AgWx,beryljct,423,16FEB2019:20:15:00,29.6,12.95,28.3,28.1,29.1,29.8,28.1,67,76,61,0.398,19.3,21.6,18.0,3.88,3.3,172,35,5.9,-0.00002,-0.00001,.,33.5,25,0,0,35.4,10.75,0.00,0.00
15min,AgWx,beryljct,423,16FEB2019:20:30:00,29.6,12.93,29.2,28.7,28.7,29.1,28.0,72,77,68,0.384,20.7,21.9,19.9,4.56,5.1,132,12,7.8,0.00001,0.00002,.,33.5,24,0,0,35.7,10.75,0.00,0.00
15min,AgWx,beryljct,423,16FEB2019:20:45:00,29.6,12.94,28.7,28.1,28.4,28.8,28.1,74,77,70,0.393,21.2,21.9,20.2,5.349,4.5,156,21,6.0,-0.00001,-0.00000,.,33.5,25,0,0,35.7,10.75,0.00,0.00
15min,AgWx,beryljct,423,16FEB2019:21:00:00,29.5,12.95,29.7,29.1,28.5,29.1,28.0,69,75,65,0.357,19.6,21.3,18.6,4.165,4.6,207,11,5.7,0.00001,0.00002,.,33.5,24,0,0,35.6,10.75,0.00,0.00
15min,AgWx,beryljct,423,16FEB2019:21:15:00,29.5,12.93,29.4,29.1,29.4,29.8,29.1,63,66,61,0.357,18.5,19.1,17.8,4.121,4.0,184,15,5.1,0.00001,0.00003,.,33.5,24,0,0,35.5,10.75,0.00,0.00
15min,AgWx,beryljct,423,16FEB2019:21:30:00,29.7,12.92,29.9,29.4,29.1,29.4,28.9,66,67,62,0.342,19.0,19.6,18.1,3.069,4.3,159,7.1,6.0,0.00001,0.00003,.,33.5,25,0,0,35.4,10.75,0.00,0.00
15min,AgWx,beryljct,423,16FEB2019:21:45:00,29.8,12.92,29.2,28.7,29.0,29.5,28.7,67,69,62,0.368,19.3,19.8,18.1,0,3.5,186,22,5.9,-0.00002,-0.00001,.,33.5,25,0,0,35.6,10.75,0.00,0.00
15min,AgWx,beryljct,423,16FEB2019:22:00:00,29.6,12.77,28.5,28.2,28.3,28.7,27.9,71,73,68,0.376,20.0,20.7,19.5,2.806,2.5,294,13,5.3,-0.00007,-0.00008,.,33.5,25,0,0,35.5,10.75,0.00,0.00
15min,AgWx,beryljct,423,16FEB2019:22:15:00,29.6,12.91,28.5,27.9,27.9,28.2,27.8,74,76,71,0.389,20.9,21.3,20.1,1.184,3.0,327,17,4.8,-0.00006,-0.00006,.,33.5,25,0,0,35.6,10.75,0.00,0.00
15min,AgWx,beryljct,423,16FEB2019:22:30:00,29.5,12.9,28.1,27.7,27.7,27.9,27.5,76,77,75,0.388,21.1,21.4,20.8,3.99,2.6,1.1,11,4.2,-0.00008,-0.00009,.,33.5,25,0,0,35.5,10.75,0.00,0.00
15min,AgWx,beryljct,423,16FEB2019:22:45:00,29.6,12.9,28.3,27.7,27.6,27.7,27.5,78,80,75,0.401,21.7,22.2,20.9,2.521,3.3,332,14,4.9,-0.00006,-0.00006,.,33.5,24,0,0,35.8,10.76,0.00,0.00
15min,AgWx,beryljct,423,16FEB2019:23:00:00,29.7,12.88,28.4,27.8,27.8,27.9,27.7,76,78,75,0.392,21.4,21.8,20.9,2.433,3.1,319,8.5,4.9,-0.00006,-0.00006,.,33.5,25,0,0,35.8,10.75,0.00,0.00
15min,AgWx,beryljct,423,16FEB2019:23:15:00,29.7,12.87,28.4,27.9,28.0,28.2,27.8,76,77,75,0.396,21.4,21.6,21.2,2.872,2.4,316,7.2,3.8,-0.00008,-0.00009,.,33.5,25,0,0,35.4,10.75,0.00,0.00
15min,AgWx,beryljct,423,16FEB2019:23:30:00,29.5,12.87,27.5,27.2,27.6,27.9,27.2,79,82,77,0.414,22.0,22.6,21.5,5.042,4.6,324,5.8,6.8,-0.00003,-0.00002,.,33.5,25,0,0,35.5,10.76,0.01,0.00
15min,AgWx,bigpiney,439,16FEB2019:00:00:00,20.2,12.7,14.9,14.5,14.7,15.2,13.8,76,77,75,0.226,8.6,9.1,7.4,4.077,1.9,219,50,4.9,-0.00001,-0.00000,29.2,29.6,8,0,0,0.0,0.07,0.00,0.00
15min,AgWx,bigpiney,439,16FEB2019:00:15:00,19.7,12.68,14.7,14.6,14.2,14.7,13.7,77,77,75,0.221,8.2,8.7,7.7,5.152,4.8,218,4.6,5.6,0.00003,0.00004,29.2,29.6,8,0,0,0.0,0.07,0.00,0.00
15min,AgWx,bigpiney,439,16FEB2019:00:30:00,19.0,12.67,11.9,12.0,14.2,15.2,12.0,74,76,73,0.198,7.5,8.6,5.7,5.634,5.6,214,7.9,6.3,0.00004,0.00005,29.2,29.6,8,0,0,0.0,0.07,0.00,0.00
15min,AgWx,bigpiney,439,16FEB2019:00:45:00,18.2,12.66,11.8,11.5,11.5,12.0,11.2,77,77,75,0.196,5.6,5.9,5.3,6.774,6.5,215,5.0,7.2,0.00004,0.00005,29.2,29.6,8,0,0,0.0,0.07,0.00,0.00
15min,AgWx,bigpiney,439,16FEB2019:01:00:00,17.4,12.66,13.3,12.7,11.9,12.7,11.4,75,76,74,0.202,5.6,6.1,5.0,6.182,6.9,232,8.6,7.7,0.00004,0.00005,29.2,29.6,8,0,0,0.0,0.07,0.00,0.00
15min,AgWx,bigpiney,439,16FEB2019:01:15:00,16.9,12.66,15.0,14.2,13.2,14.4,12.5,73,74,69,0.200,6.0,6.5,5.7,5.963,6.0,244,4.4,6.4,0.00005,0.00006,29.2,29.6,8,0,0,0.0,0.07,0.00,0.00
15min,AgWx,bigpiney,439,16FEB2019:01:30:00,16.7,12.63,15.4,14.8,14.1,14.8,13.5,69,70,68,0.203,6.0,6.4,5.5,4.012,5.1,248,3.8,6.3,0.00005,0.00006,29.2,29.6,8,0,0,0.0,0.07,0.00,0.00
15min,AgWx,bigpiney,439,16FEB2019:01:45:00,16.6,12.64,13.9,12.6,13.3,15.8,11.8,71,74,66,0.199,5.5,6.7,4.9,8.24,5.9,232,11,8.7,0.00005,0.00006,29.2,29.6,8,0,0,0.0,0.07,0.00,0.00
15min,AgWx,bigpiney,439,16FEB2019:02:00:00,16.4,12.63,12.4,12.1,13.2,14.1,12.1,71,74,69,0.190,5.6,6.0,4.8,6.116,6.5,245,8.1,8.3,0.00005,0.00007,29.2,29.6,8,0,0,0.0,0.07,0.00,0.00
15min,AgWx,bigpiney,439,16FEB2019:02:15:00,16.3,12.63,15.0,14.6,12.9,14.7,11.8,71,73,67,0.198,5.4,6.0,4.7,5.722,7.0,246,9.5,8.2,0.00006,0.00007,29.2,29.6,8,0,0,0.0,0.07,0.00,0.00
15min,AgWx,bigpiney,439,16FEB2019:02:30:00,16.3,12.61,17.6,16.0,15.6,17.2,14.1,65,68,61,0.199,5.9,7.1,5.2,4.143,4.9,247,6.9,7.0,0.00006,0.00008,29.2,29.7,8,0,0,0.0,0.07,0.00,0.00
15min,AgWx,bigpiney,439,16FEB2019:02:45:00,16.4,12.62,16.7,15.3,16.1,16.9,15.3,62,64,60,0.193,5.5,6.1,4.4,3.99,2.1,290,31,4.4,0.00002,0.00004,29.2,29.5,8,0,0,0.0,0.07,0.00,0.00
15min,AgWx,bigpiney,439,16FEB2019:03:00:00,16.4,12.61,14.7,15.1,15.8,16.3,15.1,65,66,63,0.197,6.0,6.7,5.2,5.612,3.7,337,23,6.7,0.00005,0.00006,29.2,29.6,8,0,0,0.0,0.07,0.00,0.00
15min,AgWx,bigpiney,439,16FEB2019:03:15:00,16.3,12.61,10.5,12.6,13.2,15.1,12.2,69,70,66,0.185,4.8,5.7,3.9,0.965,4.5,351,22,7.3,0.00005,0.00006,29.2,29.7,8,0,0,0.0,0.07,0.00,0.00
15min,AgWx,bigpiney,439,16FEB2019:03:30:00,15.9,12.58,11.5,11.3,10.8,12.4,10.0,72,74,68,0.188,3.7,4.7,3.1,0,0.2,357,23,1.5,-0.00004,-0.00006,29.2,29.7,8,0,0,0.0,0.07,0.00,0.00
15min,AgWx,bigpiney,439,16FEB2019:03:45:00,15.3,12.59,12.1,11.5,11.5,12.1,11.0,73,74,72,0.183,4.5,5.1,4.1,5.656,5.3,256,6.2,7.7,0.00004,0.00005,29.2,29.6,8,0,0,0.0,0.07,0.00,0.00
15min,AgWx,bigpiney,439,16FEB2019:04:00:00,14.9,12.58,11.0,10.1,11.6,12.7,9.9,71,73,70,0.177,4.2,5.0,2.5,0.022,4.3,267,47,6.2,0.00004,0.00005,29.2,29.7,8,0,0,0.0,0.07,0.00,0.00
15min,AgWx,bigpiney,439,16FEB2019:04:15:00,14.7,12.58,13.9,13.2,13.3,14.7,10.2,71,76,68,0.192,5.5,6.2,3.4,7.936,6.3,286,16,8.9,0.00005,0.00007,29.2,29.7,8,0,0,0.0,0.07,0.00,0.00
15min,AgWx,bigpiney,439,16FEB2019:04:30:00,14.7,12.56,12.5,12.8,12.7,13.3,12.4,70,71,69,0.189,4.8,5.1,4.6,5.042,6.3,272,12,8.1,0.00005,0.00007,29.2,29.7,8,0,0,0.0,0.07,0.00,0.00
15min,AgWx,bigpiney,439,16FEB2019:04:45:00,14.7,12.57,14.4,13.8,13.1,14.1,12.3,69,70,68,0.195,4.8,5.8,3.6,7.366,6.9,282,9.1,9.0,0.00006,0.00007,29.2,29.7,8,0,0,0.0,0.07,0.00,0.00
15min,AgWx,bigpiney,439,16FEB2019:05:00:00,14.6,12.56,13.7,12.9,13.1,13.9,11.9,68,69,67,0.186,4.5,5.4,3.5,7.015,6.9,281,4.7,8.8,0.00006,0.00008,29.2,29.7,8,0,0,0.0,0.07,0.00,0.00
15min,AgWx,bigpiney,439,16FEB2019:05:15:00,14.4,12.56,11.1,11.1,13.4,14.5,11.1,65,68,64,0.170,4.0,4.7,2.3,7.344,7.2,290,11,8.3,0.00007,0.00009,29.2,29.8,8,0,0,0.0,0.07,0.00,0.00
15min,AgWx,bigpiney,439,16FEB2019:05:30:00,14.2,12.54,9.7,10.3,11.4,12.2,10.1,68,69,67,0.169,2.8,3.6,1.6,7.256,7.4,281,6.1,9.0,0.00006,0.00008,29.2,29.7,8,0,0,0.0,0.07,0.00,0.00
15min,AgWx,bigpiney,439,16FEB2019:05:45:00,13.6,12.55,12.0,11.5,10.3,11.5,9.6,69,71,67,0.173,2.3,3.1,1.5,6.007,6.5,281,11,8.4,0.00005,0.00006,29.2,29.8,8,0,0,0.0,0.07,0.00,0.00
15min,AgWx,bigpiney,439,16FEB2019:06:00:00,12.9,12.54,10.4,10.7,11.1,11.6,10.1,67,68,65,0.166,2.2,2.8,0.8,5.196,5.6,275,12,7.0,0.00005,0.00007,29.2,29.7,8,0,0,0.0,0.07,0.00,0.00
15min,AgWx,bigpiney,439,16FEB2019:06:15:00,12.2,12.54,7.4,7.4,8.8,10.6,6.9,70,73,67,0.156,1.0,1.8,-1.1,6.752,5.9,280,7.9,7.0,0.00005,0.00006,29.2,29.8,8,0,0,0.0,0.07,0.00,0.00
15min,AgWx,bigpiney,439,16FEB2019:06:30:00,11.2,12.54,5.4,4.6,6.5,7.5,4.6,73,74,71,0.138,-0.3,1.0,-2.2,7.278,7.0,284,14,8.8,0.00004,0.00005,29.2,29.8,8,0,0,0.0,0.07,0.00,0.00
15min,AgWx,bigpiney,439,16FEB2019:06:45:00,10.3,12.53,8.8,8.6,6.8,9.5,4.6,74,76,69,0.155,0.2,2.3,-1.9,7.366,7.9,282,5.5,9.1,0.00004,0.00005,29.2,29.7,8,0,0,0.0,0.07,0.00,0.00
15min,AgWx,bigpiney,439,16FEB2019:07:00:00,9.8,12.53,8.3,7.5,7.4,8.6,6.8,71,72,69,0.152,-0.2,0.5,-0.9,6.094,6.8,270,3.5,8.4,0.00005,0.00006,29.2,29.8,8,0,0,0.0,0.07,0.00,0.00
15min,AgWx,bigpiney,439,16FEB2019:07:15:00,9.2,12.53,4.6,3.9,5.1,7.5,3.2,72,75,69,0.137,-1.9,0.1,-3.9,6.642,6.2,299,33,10.2,0.00004,0.00005,29.2,29.7,8,2,0,0.0,0.07,0.00,0.00
15min,AgWx,bigpiney,439,16FEB2019:07:30:00,8.5,12.51,3.7,2.3,3.9,5.2,1.9,75,77,72,0.127,-2.2,-0.9,-4.9,6.862,4.6,265,50,9.1,0.00003,0.00003,29.2,29.7,8,6,0,0.0,0.07,0.00,0.00
15min,AgWx,bigpiney,439,16FEB2019:07:45:00,7.7,12.54,6.8,6.9,5.0,7.0,2.4,76,78,75,0.158,-0.8,1.0,-3.5,3.42,4.3,123,21,6.9,0.00003,0.00008,29.2,29.8,8,13,0,0.0,0.07,0.00,0.00
15min,AgWx,bigpiney,439,16FEB2019:08:00:00,7.3,12.83,1.3,0.3,3.2,6.9,-0.3,76,81,72,0.124,-2.6,1.1,-5.7,0.066,2.5,110,72,7.3,0.00000,0.00003,29.2,29.7,8,73,0,0.0,0.07,0.00,0.00
15min,AgWx,bigpiney,439,16FEB2019:08:15:00,7.4,13.08,3.5,2.2,1.5,2.3,0.4,82,83,81,0.138,-2.6,-1.8,-4.1,0.614,1.7,9.2,14,4.1,0.00010,0.00012,29.2,29.8,8,136,0,0.0,0.07,0.00,0.00